Regional Weather Roundup
Issued by NWS

Home | Current Version | Previous Version | Text Only | Print | Product List | Glossary Off
Versions: 1 2 3 4 5 6 7 8 9 10 11 12 13 14 15 16 17 18 19 20 21 22 23 24 25 26 27 28 29 30 31 32 33 34 35 36 37 38 39 40 41 42 43 44 45 46 47 48 49 50

000
ASUS43 KOAX 200602
RWRNE

WEATHER ROUNDUP FOR NEBRASKA
NATIONAL WEATHER SERVICE OMAHA NE
100 AM CDT SUN AUG 20 2017

NOTES: SATELLITE DATA IS BEING USED TO AUGMENT CLOUD COVER ABOVE
       12000 FEET.
       "FAIR" INDICATES FEW OR NO CLOUDS BELOW 12,000 FEET WITH NO
       SIGNIFICANT WEATHER AND/OR OBSTRUCTIONS TO VISIBILITY.


NEZ001>004-019>022-054>056-200700-
NEBRASKA PANHANDLE

CITY           SKY/WX    TMP DP  RH WIND       PRES   REMARKS
SCOTTSBLUFF    CLEAR     63  48  58 E5        29.95R
6HR MIN TEMP:  61; 6HR MAX TEMP:  94;

ALLIANCE       CLEAR     59  51  75 CALM      29.93S
6HR MIN TEMP:  59; 6HR MAX TEMP:  90;

CHADRON        CLEAR     65  45  48 CALM      29.93R
6HR MIN TEMP:  65; 6HR MAX TEMP:  96; 6HR PCP: TRACE;

GORDON         FAIR      60  49  68 CALM      29.93S
6HR MIN TEMP:  58; 6HR MAX TEMP:  92;

KIMBALL        CLEAR     62  47  57 SW6       30.03R
SIDNEY         CLOUDY    57  52  83 CALM      29.98R
6HR MIN TEMP:  57; 6HR MAX TEMP:  92;

$$

NEZ057>060-069>072-079>082-200700-
SOUTHWEST NEBRASKA

CITY           SKY/WX    TMP DP  RH WIND       PRES   REMARKS
NORTH PLATTE   CLEAR     69  65  86 NE7       29.87S
6HR MIN TEMP:  69; 6HR MAX TEMP:  90;

IMPERIAL       CLEAR     67  59  75 W8        29.89F
6HR MIN TEMP:  67; 6HR MAX TEMP:  93;

LEXINGTON      CLEAR     74  63  68 E8        29.89S
MCCOOK         CLEAR     75  63  66 SW10      29.87R
6HR MIN TEMP:  75; 6HR MAX TEMP:  92;

OGALLALA       CLEAR     67  59  76 NE5       29.90S
$$

NEZ005>010-023>029-035>040-094-200700-
NORTH CENTRAL NEBRASKA

CITY           SKY/WX    TMP DP  RH WIND       PRES   REMARKS
VALENTINE      CLEAR     70  58  65 SW6       29.86S
6HR MIN TEMP:  70; 6HR MAX TEMP:  96;

AINSWORTH      CLEAR     69  61  75 SW8       29.85S
BROKEN BOW     CLEAR     67  59  75 E5        29.89R
6HR MIN TEMP:  66; 6HR MAX TEMP:  90;

O`NEILL        CLOUDY    69  60  73 S7        29.85R
ORD            CLOUDY    69  55  60 S14G23    29.84S
6HR MIN TEMP:  66; 6HR MAX TEMP:  85; 6HR PCP:  0.41;

THEDFORD       CLEAR     69  59  69 S5        29.90S
$$

NEZ041-046>049-061>064-073>077-083>087-200700-
SOUTH CENTRAL NEBRASKA

CITY           SKY/WX    TMP DP  RH WIND       PRES   REMARKS
GRAND ISLAND   LGT RAIN  66  63  90 NE18      29.94F
6HR MIN TEMP:  66; 6HR MAX TEMP:  84; 6HR PCP:  0.13;

AURORA         CLOUDY    65  63  91 E9        29.92F
HASTINGS       CLOUDY    67  61  81 NE18G31   29.93R THUNDER
6HR MIN TEMP:  67; 6HR MAX TEMP:  87; 6HR PCP:  0.17;

HEBRON         CLOUDY    80  69  69 S10       29.85R
HOLDREGE       CLEAR     67  63  86 N12       29.90R
KEARNEY        PTCLDY    69  63  81 SE15      29.91F
$$

NEZ011>018-030>034-042>045-200700-
NORTHEAST NEBRASKA

CITY           SKY/WX    TMP DP  RH WIND       PRES   REMARKS
NORFOLK        CLOUDY    76  56  49 S24G35    29.83R
6HR MIN TEMP:  70; 6HR MAX TEMP:  78; 6HR PCP: TRACE;

ALBION         CLOUDY    71  58  64 S25G31    29.83F
BLAIR          TSTM      71  69  95 NE16G22   29.95R
COLUMBUS       TSTM      67  62  84 S15G30    29.95R
FREMONT        TSTM      70  68  95 W7        29.94R
TEKAMAH        LGT RAIN  71  67  87 SW10      29.91S
6HR MIN TEMP:  69; 6HR MAX TEMP:  81; 6HR PCP: TRACE;

WAYNE          CLOUDY    79  51  37 W7G16     29.81R
$$

NEZ050>053-065>068-078-088>093-200700-
SOUTHEAST NEBRASKA

CITY           SKY/WX    TMP DP  RH WIND       PRES   REMARKS
LINCOLN        TSTM      69  64  84 NW25G54   29.98R
6HR MIN TEMP:  69; 6HR MAX TEMP:  85; 6HR PCP:  0.05;

OMAHA EPPLEY   TSTM      75  66  73 NW15G21   29.92R
6HR MIN TEMP:  75; 6HR MAX TEMP:  85; 6HR PCP:  0.01;

BEATRICE       CLOUDY    81  73  76 S13       29.84F
FALLS CITY     CLOUDY    72  70  93 SE9       29.86F
6HR MIN TEMP:  72; 6HR MAX TEMP:  85;

NEBRASKA CITY  CLOUDY    77  73  86 S20       29.82F
PLATTSMOUTH    CLOUDY    77  67  71 S10G23    29.85R
$$

NEZ044-045-051>053-067-200700-
OMAHA AREA

CITY           SKY/WX    TMP DP  RH WIND       PRES   REMARKS
OMAHA EPPLEY   TSTM      75  66  73 NW15G21   29.92R
6HR MIN TEMP:  75; 6HR MAX TEMP:  85; 6HR PCP:  0.01;

BLAIR          TSTM      71  69  95 NE16G22   29.95R
FREMONT        TSTM      70  68  95 W7        29.94R
MILLARD        CLOUDY    76  70  81 N6G18     29.92R
OFFUTT AFB     CLOUDY    78  65  64 N7G31     29.89R THUNDER
PLATTSMOUTH    CLOUDY    77  67  71 S10G23    29.85R
WAHOO          LGT RAIN  71  63  76 N9        29.92R
$$



USA.gov is the U.S. government's official web portal to all federal, state and local government web resources and services.